Regional Weather Roundup
Issued by NWS

Home | Current Version | Previous Version | Text Only | Print | Product List | Glossary Off
Versions: 1 2 3 4 5 6 7 8 9 10 11 12 13 14 15 16 17 18 19 20 21 22 23 24 25 26 27 28 29 30 31 32 33 34 35 36 37 38 39 40 41 42 43 44 45 46 47 48 49 50

000
ASUS45 KABQ 260110
RWRNM
NEW MEXICO REGIONAL WEATHER ROUNDUP
NATIONAL WEATHER SERVICE ALBUQUERQUE NM
700 PM MDT WED APR 25 2018

NOTE: "FAIR" MEANS FEW OR NO CLOUDS BELOW 12,000 FEET AGL WITH NO
       SIGNIFICANT WEATHER OR OBSTRUCTIONS TO VISION.

      THIS PRODUCT IS RELEASED AS TWO VERSIONS.  ONE VERSION NEAR
      THE TOP OF THE HOUR CONTAINING PRELIMINARY DATA FROM ALBUQUERQUE
      AND OTHER STATIONS.  A FINAL VERSION WITH ADDITIONAL DATA IS
      ISSUED ABOUT 10 MINUTES AFTER THE HOUR.

NMZ501-503-504-510>518-260200-
NORTHWEST PLATEAU/NORTHCENTRAL MOUNTAINS

CITY           SKY/WX    TMP DP  RH WIND       PRES   REMARKS
FARMINGTON     FAIR      70  -5   5 W15       30.10S
LOS ALAMOS     FAIR      62  24  23 S6        30.19F
SANTA FE       FAIR      67  21  17 S3        30.13F
TAOS           FAIR      65  11  12 SW10      30.18F
ANGEL FIRE     FAIR      55  26  33 S13       30.24R

$$
NMZ402-403-502-505>509-260200-
WESTCENTRAL MOUNTAINS/SOUTHWEST MOUNTAINS

CITY           SKY/WX    TMP DP  RH WIND       PRES   REMARKS
GALLUP         FAIR      73  11   9 W16       30.14S
GRANTS         FAIR      74  12   9 N12       30.15S
SILVER CITY    FAIR      78  20  11 SW13G20   30.09F

$$
NMZ407-409-411-412-260200-
SOUTHERN DESERTS

CITY           SKY/WX    TMP DP  RH WIND       PRES   REMARKS
DEMING         FAIR      80  30  16 SE6       30.05F
LAS CRUCES     FAIR      75  32  20 E9        30.10F
HOLLOMAN AFB   FAIR      75  34  23 SE12      30.10F
ALAMOGORDO     FAIR      72  36  26 S14       30.10F
T OR C         FAIR      77  29  17 S10       30.07F

$$
NMZ519>523-260200-
CENTRAL VALLEYS/CENTRAL HIGHLANDS

CITY           SKY/WX    TMP DP  RH WIND       PRES   REMARKS
ALBUQUERQUE    FAIR      72  24  16 CALM      30.10F
DOUBLE EAGLE   PTCLDY    68  30  24 VRB6      30.14S
MORIARTY ARPT  FAIR      67  30  24 S9        30.17F
CLINES CORNERS FAIR      59  29  31 S13       30.22F
BELEN          FAIR      72  26  18 SE5       30.09F
SOCORRO        FAIR      75  26  16 S13       30.08F

$$
NMZ524>526-539-540-260200-
SOUTHCENTRAL MOUNTAINS

CITY           SKY/WX    TMP DP  RH WIND       PRES   REMARKS
RUIDOSO        FAIR      55  34  44 SE13G18   30.24F

$$
NMZ527>531-260200-
NORTHEAST HIGHLANDS/NORTHEAST PLAINS

CITY           SKY/WX    TMP DP  RH WIND       PRES   REMARKS
LAS VEGAS      FAIR      57  29  34 S15       30.19F
RATON          FAIR      62   8  12 S10       30.14F
CLAYTON        FAIR      60  20  21 E8        30.13S

$$
NMZ532>537-260200-
EASTCENTRAL PLAINS

CITY           SKY/WX    TMP DP  RH WIND       PRES   REMARKS
SANTA ROSA     FAIR      64  26  24 SE10      30.14F
TUCUMCARI      FAIR      64  30  27 S8        30.11F
CANNON AFB     FAIR      62  26  25 CALM      30.17F
CLOVIS AIRPORT FAIR      61  25  25 W3        30.17F

$$
NMZ028-029-538-260200-
SOUTHEAST PLAINS

CITY           SKY/WX    TMP DP  RH WIND       PRES   REMARKS
ROSWELL        FAIR      65  36  34 SW3       30.14F
ARTESIA        FAIR      63  37  39 SE7       30.16F
CARLSBAD       FAIR      62  38  40 S5        30.15F
HOBBS          FAIR      66  34  30 E6        30.15S


$$




USA.gov is the U.S. government's official web portal to all federal, state and local government web resources and services.